Miscellaneous Local Product
Issued by NWS North Platte, NE

Home | Current Version | Previous Version | Text Only | Print | Product List | Glossary On
Versions: 1 2 3 4 5 6 7 8 9 10 11 12 13 14 15 16 17 18 19 20 21 22 23 24 25 26 27 28 29 30 31 32 33 34 35 36 37 38 39 40 41 42 43 44 45 46 47 48 49 50
762
AXUS43 KLBF 242210
MISLBF


WESTERN AND NORTH CENTRAL NEBRASKA HOURLY WEATHER ROUNDUP
NATIONAL WEATHER SERVICE NORTH PLATTE NE
500 PM CDT SUN JUL 24 2016

NOTE: "FAIR" INDICATES FEW OR NO CLOUDS BELOW 12,000 FEET WITH NO
SIGNIFICANT WEATHER AND/OR OBSTRUCTIONS TO VISIBILITY.

NOTE: STATIONS NOT REPORTING VARIABLES SUCH AS SKY/WEATHER OR
PRESSURE ARE PROVIDED BY RAWS AND APRS NETWORKS AND ARE NOT UNDER
NATIONAL WEATHER SERVICE QUALITY CONTROL.

...OBSERVATIONS IN AND NEAR THE EASTERN PANHANDLE OF NEBRASKA...

CITY           SKY/WX    TMP DP  RH WIND       PRES   REMARKS
PINE RIDGE     MOSUNNY   88  46  23 NE6       30.12S
CHADRON        SUNNY     88  44  21 E9G20     30.10S
ALLIANCE       CLOUDY    77  51  40 SE10      30.15R
SIDNEY         SUNNY     83  53  35 E17G24    30.16F
CRESCENT LAKE    N/A     79  53  39 SE8G15      N/A
$$

...OBSERVATIONS IN NORTHERN NEBRASKA AND FAR SOUTHERN SOUTH DAKOTA...

CITY           SKY/WX    TMP DP  RH WIND       PRES   REMARKS
WINNER         FAIR      87  50  27 VRB5      30.07F
VALENTINE      SUNNY     86  48  26 VRB5      30.10F
THEDFORD       SUNNY     87  54  32 E9        30.11F
AINSWORTH      SUNNY     84  58  41 E6        30.10S
O`NEILL        CLOUDY    83  55  38 E6        30.09F
ORD            CLOUDY    83  60  45 E7        30.06F
BROKEN BOW     CLOUDY    82  63  52 NE9G18    30.09R
VALENTINE NWR    N/A     85  53  33 E7          N/A
BUTTE            N/A     79  58  48 NE8         N/A
HALSEY           N/A     84  56  37 E7          N/A
EWING            N/A     81  61  50 CALM        N/A
$$

...OBSERVATIONS IN SOUTHWEST NEBRASKA AND FAR NORTHEAST COLORADO...

CITY           SKY/WX    TMP DP  RH WIND       PRES   REMARKS
HOLYOKE        FAIR      86  55  35 W14       30.10F
IMPERIAL       SUNNY     88  55  32 E15       30.08F
OGALLALA       SUNNY     86  51  29 E16G22    30.11S
NORTH PLATTE   SUNNY     85  58  39 E14G20    30.09S
MCCOOK         SUNNY     88  59  37 E17G26    30.04S
LEXINGTON      SUNNY     85  56  37 E14       30.07R
STAPLETON        N/A     82  60  46 E6          N/A
GOTHENBURG       N/A     84  57  39 E12         N/A
CALLAWAY         N/A     82  66  58 E9          N/A
$$

...OBSERVATIONS IN CENTRAL LINCOLN COUNTY AREA...

CITY           SKY/WX    TMP DP  RH WIND       PRES   REMARKS
N.P. AIRPORT   SUNNY     85  58  39 E14G20    30.09S
N.P. DOWNTOWN    N/A     84  61  45 NE10        N/A
N.P. SOUTHEAST   N/A     86  61  43 E3          N/A
N.P. HILLCREST   N/A     82  60  46 E13G22      N/A
$$

...SOME OBSERVATIONS FROM AROUND THE REGION...

CITY           SKY/WX    TMP DP  RH WIND       PRES   REMARKS
DENVER         PTSUNNY   96  36  12 W17       30.10S HX  91
LARAMIE        CLOUDY    81  37  20 S8        30.28S
CHEYENNE       CLOUDY    69  55  60 SE15G28   30.22F
SCOTTSBLUFF    LGT RAIN  77  55  46 E14G26    30.09F
RAPID CITY     SUNNY     87  47  24 VRB7G17   30.10F
BISMARCK       SUNNY     84  53  34 NW14G26   30.02F
PIERRE         SUNNY     85  52  32 VRB5      30.04F
SIOUX FALLS    CLOUDY    77  62  59 NW9       30.03F
OMAHA          PTSUNNY   83  67  58 N6        30.01S
GRAND ISLAND   SUNNY     87  62  43 NE14      30.05S
KANSAS CITY    CLOUDY    87  77  72 N8        29.95S HX  99
WICHITA        CLOUDY    97  69  40 SE8       29.90F HX 103
OKLAHOMA CITY  MOSUNNY   98  67  36 S9        29.92F HX 102
DALLAS         MOSUNNY   97  69  40 SE9       29.88F HX 103
AMARILLO       MOSUNNY   96  54  24 SE10      30.02F HX  94
DODGE CITY     CLOUDY    94  63  35 CALM      29.97F HX  95
HAYS           SUNNY     91  66  43 NE22G28   29.99S HX  94
GOODLAND       LGT RAIN  91  58  32 E12       30.06F HX  90
$$




USA.gov is the U.S. government's official web portal to all federal, state and local government web resources and services.